Theta_e
341 350 354 355 354 353 352 352 352 353 352 350 350 352 352 350 349 349 347 345 344 343 343 342 342 344 344 345 345 344 344 345 346 347 348 347 348 348 348 348 348 348 351
343 349 352 355 354 354 352 351 352 353 353 353 353 352 351 350 349 346 345 344 344 342 342 341 340 340 341 341 341 342 343 343 344 345 347 347 346 345 345 344 346 346 349
342 350 352 353 353 354 353 352 352 352 351 352 352 351 350 349 347 346 345 343 343 342 340 338 337 336 336 336 337 341 343 342 343 344 345 340 341 344 344 343 343 343 346
342 348 351 350 353 354 353 352 352 352 351 351 351 350 349 348 347 345 344 343 342 341 340 337 334 331 330 333 335 340 342 342 342 343 338 338 338 342 342 341 340 340 341
342 348 351 350 352 353 353 352 352 352 351 350 350 349 349 348 346 345 343 341 340 339 338 336 333 329 327 329 333 338 340 340 340 339 337 339 340 342 342 341 338 338 340
341 347 347 349 352 352 352 352 351 350 350 349 349 349 348 348 346 344 342 340 338 337 336 334 331 326 325 326 330 335 335 336 336 335 335 336 338 341 342 342 338 338 339
339 345 350 348 351 351 350 349 348 349 349 348 348 347 347 346 345 343 340 338 337 336 335 332 329 324 323 325 327 330 330 329 331 332 333 334 334 336 338 339 339 339 338
340 344 347 342 342 348 349 348 348 349 348 346 347 347 345 346 344 343 340 338 337 336 333 331 327 323 321 322 324 324 323 324 324 326 327 329 331 331 333 333 335 336 336
341 342 344 345 345 337 341 344 345 347 346 346 346 345 344 344 344 343 342 338 336 335 332 329 326 322 319 319 317 316 317 320 318 319 319 323 327 328 327 327 331 333 333
323 328 336 341 344 345 349 338 338 342 343 344 343 341 339 339 339 336 335 338 336 335 331 328 326 322 316 313 313 311 313 317 313 315 317 317 324 326 326 326 326 327 329
314 316 318 323 335 339 343 340 335 334 337 338 339 335 334 344 342 336 332 335 336 334 331 329 325 320 312 309 309 310 313 309 310 311 312 315 319 325 327 325 324 325 326
310 312 313 315 319 330 338 342 345 345 345 343 344 344 343 342 342 339 329 329 331 331 331 328 324 320 320 315 309 312 308 309 309 310 309 312 316 320 323 327 325 324 326
309 311 312 314 315 318 333 340 344 345 343 343 343 343 342 342 340 340 336 332 332 325 331 328 326 328 324 319 314 311 309 310 309 309 308 309 314 318 322 324 328 326 326
309 310 313 315 317 317 325 338 341 341 343 342 341 341 341 340 339 336 334 334 335 330 330 328 327 326 324 319 316 313 311 310 308 309 307 307 309 314 318 322 326 330 326
307 310 314 318 320 320 320 337 339 336 337 335 334 335 337 336 336 336 334 331 332 330 327 329 326 322 322 321 318 314 313 312 310 309 310 307 306 309 313 317 322 328 330
308 311 313 315 322 318 328 331 328 328 325 325 325 328 331 331 329 329 328 324 323 323 322 322 319 319 317 314 316 314 313 313 312 311 310 310 307 306 309 313 317 321 326
309 308 308 314 320 320 316 316 317 318 317 316 318 320 321 325 327 324 323 323 321 320 318 318 315 314 316 314 315 315 313 313 312 311 311 310 310 309 306 309 313 316 320
307 305 307 311 311 309 307 308 308 310 312 312 313 314 317 318 319 317 315 314 314 314 313 312 310 310 309 310 312 313 310 310 313 312 311 310 311 308 311 307 308 310 312
304 304 305 307 306 305 304 304 305 306 306 308 310 311 313 315 316 315 314 314 312 312 312 311 311 310 311 311 308 309 310 308 307 307 310 311 309 308 306 309 306 307 309
304 305 304 305 304 304 305 304 303 302 303 304 304 305 306 308 310 311 311 312 311 311 309 311 311 311 308 307 306 307 310 311 308 307 308 305 306 305 305 306 307 306 308
303 303 304 305 305 307 307 306 304 301 300 299 298 300 300 301 303 304 304 305 306 304 304 305 307 308 306 305 308 307 310 309 306 306 308 307 305 305 306 304 304 304 304
303 304 304 305 308 309 307 305 302 299 297 296 295 295 296 296 296 297 298 298 300 299 298 299 301 303 303 303 299 303 303 305 304 306 306 305 305 304 304 305 305 304 305
301 302 302 304 304 304 303 300 298 297 296 294 293 292 293 294 294 294 294 294 294 294 293 293 294 295 295 299 299 298 296 295 296 304 303 303 302 301 301 301 302 303 303
297 298 300 300 301 301 302 301 299 295 291 291 291 292 292 293 292 292 293 293 293 292 292 292 292 292 292 290 294 293 297 295 292 290 296 296 293 293 294 299 295 297 301
295 295 296 295 295 296 297 297 295 292 292 291 290 290 290 291 291 290 291 291 291 291 291 291 291 291 291 289 290 290 290 290 294 286 284 286 290 292 294 292 294 297 298
292 293 293 292 292 293 294 294 292 291 290 290 290 290 289 289 289 289 289 289 288 289 289 289 290 289 289 289 288 288 287 285 285 284 283 284 285 287 290 290 295 294 297
Wind_Speed
6 14 7 12 12 12 11 10 10 10 11 12 13 13 13 14 14 14 14 13 13 14 14 13 13 13 13 13 14 14 14 13 12 12 13 15 16 16 16 17 15 14 15
10 14 8 11 12 12 11 10 9 9 9 10 11 11 12 13 13 13 13 13 13 13 13 13 13 13 13 13 13 13 12 10 10 7 5 16 15 14 15 15 15 14 17
10 13 12 10 12 12 10 9 8 8 9 10 10 12 12 12 12 13 13 13 12 13 13 13 13 12 12 11 11 11 11 9 7 7 10 8 11 12 13 14 14 14 15
8 10 12 9 11 12 11 9 8 8 8 8 9 10 10 12 12 12 12 12 12 12 12 12 13 13 12 11 10 10 9 8 6 8 4 8 10 12 12 12 13 14 13
8 8 11 9 9 11 11 9 8 8 8 7 8 9 10 11 11 11 11 12 12 12 12 13 13 13 12 12 10 10 9 7 7 9 8 8 7 11 8 13 12 12 12
6 7 12 8 6 10 12 10 9 9 9 8 7 8 8 9 11 11 11 11 12 13 13 13 14 15 14 12 11 11 10 10 14 7 7 6 10 11 11 11 7 8 10
5 6 9 7 3 7 8 8 8 7 7 8 7 6 6 8 9 10 11 10 11 12 13 13 14 15 14 14 13 12 11 11 8 6 6 7 10 10 10 10 10 9 9
6 3 5 6 2 1 5 7 7 7 6 5 5 5 4 8 8 10 10 10 10 11 12 12 13 14 14 14 13 13 12 12 4 7 6 7 13 11 11 11 10 9 9
6 4 3 5 7 2 3 4 6 7 6 5 5 4 5 7 8 9 9 9 10 11 12 12 12 12 12 12 12 11 10 10 7 5 6 9 14 12 11 11 11 10 8
7 6 5 5 5 5 7 8 5 5 6 5 4 4 6 8 9 9 9 9 10 10 10 10 10 9 9 10 10 9 7 8 7 6 6 7 13 12 11 11 11 10 9
5 6 5 4 1 3 5 2 7 5 4 3 6 6 7 6 8 8 8 10 9 9 8 10 9 7 5 6 7 6 7 5 5 5 5 10 12 12 11 9 10 10 9
6 5 5 5 5 3 3 6 6 5 4 6 7 7 6 4 5 7 7 7 9 8 7 6 5 6 0 4 3 1 4 4 4 3 5 10 11 11 11 12 9 8 8
6 5 6 5 5 4 4 3 2 2 2 4 3 3 3 3 6 4 4 3 3 3 3 3 1 2 5 4 4 4 4 4 3 3 7 9 11 11 11 11 11 7 6
7 7 7 7 4 2 4 2 1 1 2 3 6 7 2 2 3 3 2 2 2 1 3 1 2 4 5 5 5 5 4 3 3 2 5 7 8 10 11 11 11 10 6
8 9 9 9 6 2 5 3 4 6 6 8 7 8 6 6 5 4 3 3 3 3 2 2 4 4 4 5 4 5 5 4 4 2 2 5 3 6 8 10 11 12 11
8 9 10 10 6 3 3 9 7 7 8 8 8 9 9 5 5 5 4 4 4 3 4 4 4 3 2 2 1 2 2 3 4 4 3 1 3 2 5 7 9 9 11
6 8 8 7 9 11 12 10 8 8 8 8 8 11 11 10 9 7 5 5 5 4 5 3 4 3 3 2 3 3 3 4 3 4 3 3 2 4 0 4 7 9 10
7 7 7 7 11 13 11 9 8 9 8 8 8 8 11 11 11 9 7 7 7 6 4 4 3 2 2 3 3 3 3 3 4 4 4 3 4 5 2 4 7 9 10
6 6 8 9 11 12 11 10 11 11 9 8 8 9 12 11 11 8 7 6 6 5 6 6 6 4 5 5 6 4 4 4 3 4 6 4 5 4 4 5 5 8 8
6 7 8 8 10 10 8 9 8 8 8 9 10 10 12 10 11 9 9 9 8 7 7 6 6 5 4 6 6 5 4 2 2 3 4 4 5 5 6 6 5 5 8
8 8 8 8 6 5 6 8 8 10 9 10 10 12 12 11 12 11 8 9 8 9 10 10 8 7 7 9 6 6 5 4 4 3 3 6 6 6 7 7 6 5 5
7 8 8 7 6 6 6 7 7 9 10 9 9 11 12 12 12 11 10 9 10 8 10 11 10 6 6 8 7 5 4 2 8 5 5 4 7 7 8 9 9 8 6
7 7 8 8 9 8 9 9 9 9 9 9 9 8 10 12 12 12 12 9 9 8 8 9 9 11 7 7 11 6 4 5 8 4 4 6 7 7 8 9 9 10 9
7 6 9 9 9 7 7 7 7 8 9 8 9 8 8 10 11 11 11 10 9 8 9 8 8 8 8 7 4 7 6 5 4 6 6 8 10 9 10 6 10 10 8
8 8 8 9 9 8 8 9 8 10 8 8 8 10 10 9 11 11 10 10 9 7 8 8 8 9 7 5 5 5 4 5 3 5 8 9 7 7 7 9 8 7 9
7 8 8 10 9 8 8 9 10 11 10 8 9 7 6 6 7 9 9 9 8 7 7 6 7 8 6 6 5 5 4 4 6 6 8 10 12 9 8 10 5 5 6
Wind_Direction
164 131 153 148 140 129 123 119 115 112 112 114 116 116 104 99 86 78 74 71 70 66 64 57 55 52 51 43 45 50 50 52 55 60 71 63 51 47 44 34 38 47 42
144 140 153 156 150 137 132 123 113 106 113 113 111 110 110 100 90 82 77 75 71 70 68 63 56 52 47 43 39 39 38 46 41 18 85 98 57 48 47 42 39 43 47
153 139 161 158 148 137 132 128 120 112 103 108 116 117 114 101 94 87 81 76 71 68 63 61 57 53 49 47 46 44 41 48 26 340 315 80 73 47 49 49 42 40 45
157 154 160 146 148 143 136 134 130 125 120 114 119 120 121 114 99 89 84 75 69 65 60 55 52 46 44 41 46 50 50 46 354 308 21 42 78 50 45 50 49 39 33
143 163 123 146 155 149 140 147 146 137 133 126 123 118 112 108 103 94 83 72 65 60 56 50 46 44 41 41 38 47 39 19 326 306 51 17 53 47 41 35 38 55 42
140 164 123 149 209 162 151 156 156 148 144 139 129 122 122 125 116 98 88 78 64 58 54 49 43 42 39 37 39 39 30 1 318 35 31 64 46 29 33 34 57 57 51
134 163 142 164 206 157 160 171 166 158 151 144 141 142 138 124 118 115 103 87 73 65 61 52 46 43 42 41 39 34 24 357 359 33 29 22 37 13 19 20 28 40 39
103 126 151 158 345 315 189 184 173 163 158 151 148 141 132 138 128 118 110 96 84 75 70 59 54 49 46 45 41 34 21 360 346 39 29 45 12 13 16 12 15 16 20
77 118 155 191 190 220 294 205 186 178 171 166 163 146 129 125 115 110 104 97 88 83 74 66 61 52 52 51 44 34 18 352 12 33 16 42 3 8 14 11 7 6 8
65 53 30 19 22 261 218 194 205 188 177 174 168 151 153 130 124 122 116 103 102 102 96 82 72 61 60 54 48 31 350 298 29 28 52 25 8 5 9 11 6 1 357
65 41 28 4 311 309 263 142 171 204 176 191 171 167 165 191 170 155 105 121 112 119 113 113 109 86 102 91 62 20 327 32 18 25 51 17 11 8 3 4 2 359 358
22 21 10 352 337 281 261 234 231 180 198 225 200 190 213 190 131 130 119 122 124 128 136 123 94 119 226 33 55 308 35 18 36 26 67 21 11 5 1 356 356 359 4
359 13 6 350 332 296 224 261 236 198 216 235 259 181 163 119 139 150 132 148 136 159 142 144 165 25 60 38 41 34 19 2 12 22 73 31 9 4 1 357 346 356 355
355 1 356 349 327 280 266 192 133 265 198 13 53 33 141 139 128 129 116 158 158 252 95 53 47 23 52 51 34 22 21 6 22 1 88 60 12 0 359 355 349 336 328
3 359 358 352 334 238 208 131 102 67 58 64 63 48 39 49 43 46 47 64 12 35 35 339 56 36 12 27 36 20 7 1 352 347 336 114 33 359 354 353 351 342 337
5 12 8 356 327 155 114 70 71 74 71 63 51 39 41 55 58 59 57 56 56 28 44 51 45 31 28 355 13 32 357 328 327 321 319 287 160 346 355 348 348 343 337
27 24 17 14 45 61 61 62 61 63 60 56 51 43 38 34 52 52 52 50 43 56 72 61 52 45 5 328 321 311 309 301 285 308 307 310 313 195 164 358 353 342 334
51 42 40 59 68 67 64 66 68 68 69 65 59 48 46 49 54 52 45 34 25 30 31 36 27 30 20 320 323 306 302 280 275 305 303 322 341 347 322 31 352 337 328
64 75 74 77 85 87 84 83 74 71 68 67 61 58 50 53 59 62 58 51 57 55 42 32 22 358 6 354 330 304 300 306 321 327 313 330 347 340 344 349 345 314 327
83 91 91 93 102 107 105 100 92 89 81 71 65 61 56 56 48 51 50 48 41 41 36 29 30 53 16 347 312 288 276 266 345 323 344 5 24 11 13 353 342 345 341
113 103 103 112 136 134 123 112 94 84 79 74 67 62 61 56 58 58 53 42 50 44 37 26 5 18 22 353 334 350 301 71 52 46 26 13 27 10 358 4 359 348 337
115 112 113 115 114 90 89 93 99 99 88 88 80 69 64 62 61 63 62 52 44 51 40 32 28 21 38 24 359 300 353 156 30 329 40 31 16 6 358 349 341 337 333
112 109 106 101 102 96 104 107 109 115 111 102 88 77 63 63 59 62 61 61 57 50 49 40 28 24 32 24 39 17 347 353 340 44 36 10 14 356 350 342 340 341 332
114 108 106 105 103 103 132 137 125 109 106 89 85 83 72 64 65 65 64 64 63 57 46 40 37 37 22 31 31 20 20 334 337 323 358 322 360 339 340 343 343 320 324
128 115 110 109 107 109 111 111 110 106 106 105 97 90 82 68 63 63 61 61 57 56 49 43 37 33 30 30 27 5 0 324 17 312 310 326 325 337 316 333 314 324 323
135 131 123 119 109 105 105 104 107 112 114 117 112 102 89 82 75 71 71 67 64 59 47 41 39 37 25 30 9 9 8 348 339 321 310 313 313 317 326 301 297 299 307